Time,TemperatureF,DewpointF,PressureIn,WindDirection,WindDirectionDegrees,WindSpeedMPH,WindSpeedGustMPH,Humidity,HourlyPrecipIn,Conditions,Clouds,dailyrainin,SolarRadiationWatts/m^2,SoftwareType,DateUTC
2013-03-04 00:01:00,23.0,19.0,-100.00,WNW,287,2.0,4.0,83,0.00,,,0.06,0.000000,,2013-03-04 05:01:00,
2013-03-04 00:32:00,23.0,21.0,-100.00,SW,218,4.0,5.0,90,0.00,,,0.06,0.000000,,2013-03-04 05:32:00,
2013-03-04 00:43:00,23.0,21.0,-100.00,SW,218,4.0,5.0,90,0.00,,,0.06,0.000000,,2013-03-04 05:43:00,
2013-03-04 00:52:00,23.0,21.0,-100.00,SW,218,4.0,5.0,90,0.00,,,0.06,0.000000,,2013-03-04 05:52:00,
2013-03-04 01:02:00,23.0,21.0,-100.00,SW,218,4.0,5.0,90,0.00,,,0.06,0.000000,,2013-03-04 06:02:00,
2013-03-04 01:32:00,23.0,19.0,-100.00,WSW,247,3.0,4.0,84,0.00,,,0.06,0.000000,,2013-03-04 06:32:00,
2013-03-04 01:42:00,23.0,19.0,-100.00,WSW,247,3.0,4.0,84,0.00,,,0.06,0.000000,,2013-03-04 06:42:00,
2013-03-04 01:52:00,23.0,19.0,-100.00,WSW,247,3.0,4.0,84,0.00,,,0.06,0.000000,,2013-03-04 06:52:00,
2013-03-04 02:02:00,23.0,19.0,-100.00,WSW,247,3.0,4.0,84,0.00,,,0.06,0.000000,,2013-03-04 07:02:00,
2013-03-04 02:32:00,23.0,18.0,-100.00,West,261,3.0,4.0,80,0.00,,,0.06,0.000000,,2013-03-04 07:32:00,
2013-03-04 02:42:00,23.0,18.0,-100.00,West,261,3.0,4.0,80,0.00,,,0.06,0.000000,,2013-03-04 07:42:00,
2013-03-04 02:52:00,23.0,18.0,-100.00,West,261,3.0,4.0,80,0.00,,,0.06,0.000000,,2013-03-04 07:52:00,
2013-03-04 03:02:00,23.0,18.0,-100.00,West,261,3.0,4.0,80,0.00,,,0.06,0.000000,,2013-03-04 08:02:00,
2013-03-04 03:32:00,23.0,16.0,-100.00,West,267,3.0,4.0,75,0.00,,,0.06,0.000000,,2013-03-04 08:32:00,
2013-03-04 03:42:00,23.0,16.0,-100.00,West,267,3.0,4.0,75,0.00,,,0.06,0.000000,,2013-03-04 08:42:00,
2013-03-04 03:52:00,23.0,16.0,-100.00,West,267,3.0,4.0,75,0.00,,,0.06,0.000000,,2013-03-04 08:52:00,
2013-03-04 04:02:00,23.0,16.0,-100.00,West,267,3.0,4.0,75,0.00,,,0.06,0.000000,,2013-03-04 09:02:00,
2013-03-04 04:32:00,22.0,15.0,-100.00,WSW,251,3.0,5.0,75,0.00,,,0.06,0.000000,,2013-03-04 09:32:00,
2013-03-04 04:42:00,22.0,15.0,-100.00,WSW,251,3.0,5.0,75,0.00,,,0.06,0.000000,,2013-03-04 09:42:00,
2013-03-04 04:52:00,22.0,15.0,-100.00,WSW,251,3.0,5.0,75,0.00,,,0.06,0.000000,,2013-03-04 09:52:00,
2013-03-04 05:01:00,22.0,15.0,-100.00,WSW,251,3.0,5.0,75,0.00,,,0.06,0.000000,,2013-03-04 10:01:00,
2013-03-04 05:32:00,22.0,16.0,-100.00,WSW,237,5.0,6.0,79,0.00,,,0.06,0.000000,,2013-03-04 10:32:00,
2013-03-04 05:42:00,22.0,16.0,-100.00,WSW,237,5.0,6.0,79,0.00,,,0.06,0.000000,,2013-03-04 10:42:00,
2013-03-04 05:52:00,22.0,16.0,-100.00,WSW,237,5.0,6.0,79,0.00,,,0.06,0.000000,,2013-03-04 10:52:00,
2013-03-04 06:02:00,22.0,16.0,-100.00,WSW,237,5.0,6.0,79,0.00,,,0.06,0.000000,,2013-03-04 11:02:00,
2013-03-04 06:32:00,22.0,15.0,-100.00,SSW,203,4.0,5.0,75,0.00,,,0.06,0.000000,,2013-03-04 11:32:00,
2013-03-04 06:42:00,22.0,15.0,-100.00,SSW,203,4.0,5.0,75,0.00,,,0.06,0.000000,,2013-03-04 11:42:00,
2013-03-04 06:52:00,22.0,15.0,-100.00,SSW,203,4.0,5.0,75,0.00,,,0.06,0.000000,,2013-03-04 11:52:00,
2013-03-04 07:02:00,22.0,15.0,-100.00,SSW,203,4.0,5.0,75,0.00,,,0.06,0.000000,,2013-03-04 12:02:00,
2013-03-04 07:32:00,21.0,15.0,-100.00,SSW,194,5.0,6.0,78,0.00,,,0.06,0.000000,,2013-03-04 12:32:00,
2013-03-04 07:43:00,21.0,15.0,-100.00,SSW,194,5.0,6.0,78,0.00,,,0.06,0.000000,,2013-03-04 12:43:00,
2013-03-04 07:53:00,21.0,15.0,-100.00,SSW,194,5.0,6.0,78,0.00,,,0.06,0.000000,,2013-03-04 12:53:00,
2013-03-04 08:02:00,21.0,15.0,-100.00,SSW,194,5.0,6.0,78,0.00,,,0.06,0.000000,,2013-03-04 13:02:00,
2013-03-04 08:32:00,25.0,21.0,-100.00,South,186,5.0,7.0,83,0.00,,,0.06,25.000000,,2013-03-04 13:32:00,
2013-03-04 08:42:00,25.0,21.0,-100.00,South,186,5.0,7.0,83,0.00,,,0.06,25.000000,,2013-03-04 13:42:00,
2013-03-04 08:52:00,25.0,21.0,-100.00,South,186,5.0,7.0,83,0.00,,,0.06,25.000000,,2013-03-04 13:52:00,
2013-03-04 09:01:00,25.0,21.0,-100.00,South,186,5.0,7.0,83,0.00,,,0.06,25.000000,,2013-03-04 14:01:00,
2013-03-04 09:32:00,29.0,19.0,-100.00,SE,145,5.0,7.0,66,0.00,,,0.06,76.000000,,2013-03-04 14:32:00,
2013-03-04 09:42:00,29.0,19.0,-100.00,SE,145,5.0,7.0,66,0.00,,,0.06,76.000000,,2013-03-04 14:42:00,
2013-03-04 09:52:00,29.0,19.0,-100.00,SE,145,5.0,7.0,66,0.00,,,0.06,76.000000,,2013-03-04 14:52:00,
2013-03-04 10:02:00,29.0,19.0,-100.00,SE,145,5.0,7.0,66,0.00,,,0.06,76.000000,,2013-03-04 15:02:00,
2013-03-04 10:32:00,34.0,20.0,-100.00,South,171,5.0,9.0,56,0.00,,,0.05,191.000000,,2013-03-04 15:32:00,
2013-03-04 10:42:00,34.0,20.0,-100.00,South,171,5.0,9.0,56,0.00,,,0.05,191.000000,,2013-03-04 15:42:00,
2013-03-04 10:52:00,34.0,20.0,-100.00,South,171,5.0,9.0,56,0.00,,,0.05,191.000000,,2013-03-04 15:52:00,
2013-03-04 11:03:00,34.0,20.0,-100.00,South,171,5.0,9.0,56,0.00,,,0.05,191.000000,,2013-03-04 16:03:00,
2013-03-04 11:32:00,36.0,21.0,-100.00,SE,132,6.0,11.0,53,0.01,,,0.04,579.000000,,2013-03-04 16:32:00,
2013-03-04 11:42:00,36.0,21.0,-100.00,SE,132,6.0,11.0,53,0.01,,,0.04,579.000000,,2013-03-04 16:42:00,
2013-03-04 11:52:00,36.0,21.0,-100.00,SE,132,6.0,11.0,53,0.01,,,0.04,579.000000,,2013-03-04 16:52:00,
2013-03-04 12:02:00,36.0,21.0,-100.00,SE,132,6.0,11.0,53,0.01,,,0.04,579.000000,,2013-03-04 17:02:00,
2013-03-04 12:32:00,39.0,22.0,-100.00,SE,142,5.0,10.0,50,0.02,,,0.05,809.000000,,2013-03-04 17:32:00,
2013-03-04 12:42:00,39.0,22.0,-100.00,SE,142,5.0,10.0,50,0.02,,,0.05,809.000000,,2013-03-04 17:42:00,
2013-03-04 12:52:00,39.0,22.0,-100.00,SE,142,5.0,10.0,50,0.02,,,0.05,809.000000,,2013-03-04 17:52:00,
2013-03-04 13:02:00,39.0,22.0,-100.00,SE,142,5.0,10.0,50,0.02,,,0.05,809.000000,,2013-03-04 18:02:00,
2013-03-04 13:32:00,43.0,22.0,-100.00,South,186,4.0,11.0,43,0.00,,,0.04,898.000000,,2013-03-04 18:32:00,
2013-03-04 13:42:00,43.0,22.0,-100.00,South,186,4.0,11.0,43,0.00,,,0.04,898.000000,,2013-03-04 18:42:00,
2013-03-04 13:52:00,43.0,22.0,-100.00,South,186,4.0,11.0,43,0.00,,,0.04,898.000000,,2013-03-04 18:52:00,
2013-03-04 14:02:00,43.0,22.0,-100.00,South,186,4.0,11.0,43,0.00,,,0.04,898.000000,,2013-03-04 19:02:00,
2013-03-04 14:32:00,44.0,21.0,-100.00,SE,141,6.0,13.0,40,0.00,,,0.03,885.000000,,2013-03-04 19:32:00,
2013-03-04 14:42:00,44.0,21.0,-100.00,SE,141,6.0,13.0,40,0.00,,,0.03,885.000000,,2013-03-04 19:42:00,
2013-03-04 14:52:00,44.0,21.0,-100.00,SE,141,6.0,13.0,40,0.00,,,0.03,885.000000,,2013-03-04 19:52:00,
2013-03-04 15:02:00,44.0,21.0,-100.00,SE,141,6.0,13.0,40,0.00,,,0.03,885.000000,,2013-03-04 20:02:00,
2013-03-04 15:32:00,47.0,21.0,-100.00,SE,128,5.0,9.0,36,0.00,,,0.03,782.000000,,2013-03-04 20:32:00,
2013-03-04 15:42:00,47.0,21.0,-100.00,SE,128,5.0,9.0,36,0.00,,,0.03,782.000000,,2013-03-04 20:42:00,
2013-03-04 15:53:00,47.0,21.0,-100.00,SE,128,5.0,9.0,36,0.00,,,0.03,782.000000,,2013-03-04 20:53:00,
2013-03-04 16:02:00,47.0,21.0,-100.00,SE,128,5.0,9.0,36,0.00,,,0.03,782.000000,,2013-03-04 21:02:00,
2013-03-04 16:32:00,48.0,19.0,-100.00,South,172,4.0,12.0,31,0.00,,,0.03,602.000000,,2013-03-04 21:32:00,
2013-03-04 16:43:00,48.0,19.0,-100.00,South,172,4.0,12.0,31,0.00,,,0.03,602.000000,,2013-03-04 21:43:00,
2013-03-04 16:53:00,48.0,19.0,-100.00,South,172,4.0,12.0,31,0.00,,,0.03,602.000000,,2013-03-04 21:53:00,
2013-03-04 17:02:00,48.0,19.0,-100.00,South,172,4.0,12.0,31,0.00,,,0.03,602.000000,,2013-03-04 22:02:00,
2013-03-04 17:32:00,44.0,18.0,-100.00,SSE,155,4.0,10.0,35,0.00,,,0.03,264.000000,,2013-03-04 22:32:00,
2013-03-04 17:43:00,44.0,18.0,-100.00,SSE,155,4.0,10.0,35,0.00,,,0.03,264.000000,,2013-03-04 22:43:00,
2013-03-04 17:52:00,44.0,18.0,-100.00,SSE,155,4.0,10.0,35,0.00,,,0.03,264.000000,,2013-03-04 22:52:00,
2013-03-04 18:02:00,44.0,18.0,-100.00,SSE,155,4.0,10.0,35,0.00,,,0.03,264.000000,,2013-03-04 23:02:00,
2013-03-04 18:32:00,42.0,19.0,-100.00,SSE,147,4.0,8.0,39,0.00,,,0.03,29.000000,,2013-03-04 23:32:00,
2013-03-04 18:42:00,42.0,19.0,-100.00,SSE,147,4.0,8.0,39,0.00,,,0.03,29.000000,,2013-03-04 23:42:00,
2013-03-04 18:52:00,42.0,19.0,-100.00,SSE,147,4.0,8.0,39,0.00,,,0.03,29.000000,,2013-03-04 23:52:00,
2013-03-04 19:02:00,42.0,19.0,-100.00,SSE,147,4.0,8.0,39,0.00,,,0.03,29.000000,,2013-03-05 00:02:00,
2013-03-04 19:32:00,41.0,20.0,-100.00,East,97,5.0,7.0,42,0.00,,,0.03,3.000000,,2013-03-05 00:32:00,
2013-03-04 19:42:00,41.0,20.0,-100.00,East,97,5.0,7.0,42,0.00,,,0.03,3.000000,,2013-03-05 00:42:00,
2013-03-04 19:52:00,41.0,20.0,-100.00,East,97,5.0,7.0,42,0.00,,,0.03,3.000000,,2013-03-05 00:52:00,
2013-03-04 20:02:00,41.0,20.0,-100.00,East,97,5.0,7.0,42,0.00,,,0.03,3.000000,,2013-03-05 01:02:00,
2013-03-04 21:32:00,39.0,21.0,-100.00,ESE,109,7.0,11.0,49,-99.99,,,0.03,0.000000,,2013-03-05 02:32:00,
2013-03-04 21:42:00,39.0,21.0,-100.00,ESE,109,7.0,11.0,49,-99.99,,,0.03,0.000000,,2013-03-05 02:42:00,
2013-03-04 21:53:00,39.0,21.0,-100.00,ESE,109,7.0,11.0,49,-99.99,,,0.03,0.000000,,2013-03-05 02:53:00,
2013-03-04 22:02:00,39.0,21.0,-100.00,ESE,109,7.0,11.0,49,-99.99,,,0.03,0.000000,,2013-03-05 03:02:00,
2013-03-04 22:32:00,40.0,22.0,-100.00,East,100,6.0,11.0,48,0.00,,,0.03,0.000000,,2013-03-05 03:32:00,
2013-03-04 22:42:00,40.0,22.0,-100.00,East,100,6.0,11.0,48,0.00,,,0.03,0.000000,,2013-03-05 03:42:00,
2013-03-04 22:52:00,40.0,22.0,-100.00,East,100,6.0,11.0,48,0.00,,,0.03,0.000000,,2013-03-05 03:52:00,
2013-03-04 23:02:00,40.0,22.0,-100.00,East,100,6.0,11.0,48,0.00,,,0.03,0.000000,,2013-03-05 04:02:00,
2013-03-04 23:32:00,39.0,20.0,-100.00,East,101,5.0,9.0,47,0.00,,,0.03,0.000000,,2013-03-05 04:32:00,
2013-03-04 23:42:00,39.0,20.0,-100.00,East,101,5.0,9.0,47,0.00,,,0.03,0.000000,,2013-03-05 04:42:00,
2013-03-04 23:52:00,39.0,20.0,-100.00,East,101,5.0,9.0,47,0.00,,,0.03,0.000000,,2013-03-05 04:52:00,